Simultaneous Nadir Overpasses (SNOs) Predictions

Prediction of SNOs between NOAA-19 and NPP Satellite Orbit:

Table of predicted SNOs for the next 14.0 days since TLE Epoch: 6/30/2017
Index Date (NOAA-19) Time (NOAA-19) Lat,Lon (NOAA-19) SZA (NOAA-19 ) Date (NPP) Time (NPP) Lat,Lon (NPP) SZA (NPP ) Distance(km) Time Diff (sec)
1 07/03/2017 13:59:16 80.74, -82.29 61.80 07/03/2017 14:00:24 80.79, -79.36 61.40 52.48 68
2 07/03/2017 14:50:06 -80.82, 87.55 118.50 07/03/2017 14:51:10 -80.82, 87.51 118.53 1.05 64
3 07/03/2017 15:41:10 80.83,-105.05 61.49 07/03/2017 15:41:55 80.81,-105.13 61.47 2.10 45
4 07/03/2017 16:32:07 -80.83, 62.25 118.52 07/03/2017 16:32:40 -80.82, 62.09 118.52 3.03 33
5 07/03/2017 17:23:12 80.82,-130.71 61.51 07/03/2017 17:23:25 80.82,-130.55 61.48 2.92 13
6 07/03/2017 18:14:09 -80.82, 36.59 118.49 07/03/2017 18:14:10 -80.82, 36.68 118.51 1.64 1
7 07/03/2017 19:05:13 80.83,-156.00 61.49 07/03/2017 19:04:55 80.82,-155.96 61.49 1.31 18
8 07/03/2017 19:56:10 -80.83, 11.29 118.51 07/03/2017 19:55:40 -80.82, 11.27 118.50 0.84 30
9 07/03/2017 20:47:14 80.83, 178.70 61.48 07/03/2017 20:46:25 80.82, 178.62 61.50 2.08 49




NCC Satellite Simultaneous Nadir Overpasses (SNOs) Prediction Service
